sat.trackr.live / text

‹ back to catalog

STARLINK-34173

NORAD 64196 · 2025-113AC

PAYLOAD ACTIVE UNKNOWN

§ Identity

Operator
Country
US
Launch date
2025-05-28
Launch site
AFETR
Launch vehicle
Mass (kg)
RCS (m²)

Purposes: comms

External: N2YO · Heavens-Above · Gunter

§ Orbital elements

Epoch: 2026-05-25T03:25:43.078080Z

Period
94.01 min
Inclination
53.1592°
Eccentricity
0.0001147
Mean motion
15.31715105 rev/d
Perigee alt
469.9 km
Apogee alt
471.5 km
Semi-major
6,848.8 km
B*
5.5836e-4
RAAN
95.7862°
Arg perigee
87.8420°
Mean anomaly
272.2713°
Rev number
5,677

§ Raw data

STARLINK-341731 64196U 25113AC  26145.14285970  .00017009  00000+0  55836-3 0  99982 64196  53.1592  95.7862 0001147  87.8420 272.2713 15.31715105 56770

JSON: /api/v1/satellites/64196 · /tle

For live sub-satellite position, see the globe view (requires WebGL).

§ Visibility from observer

Set your observer location to see the next 7 days of passes ≥ 10°. The values pass through the URL so the page stays shareable.

No JS? Fill the form by hand. The geolocation button needs JavaScript.